Total_Precipitation_Accumulation
1.70 1.78 1.86 2.00 1.89 1.82 1.80 1.74 1.64 1.62 1.72 1.73 1.70 1.76 1.78 1.78 1.81 1.88 1.87 1.82 1.80 1.75 1.69 1.69 1.68 1.70 1.80 1.80 1.74 1.68 1.63 1.74 1.77 1.07 0.78 0.79 0.92 0.97 0.99 0.91 0.81 0.81 0.87
1.66 1.70 1.78 1.92 1.97 1.86 1.82 1.78 1.64 1.53 1.56 1.66 1.72 1.76 1.84 1.89 1.85 1.89 1.87 1.84 1.91 1.88 1.77 1.72 1.69 1.70 1.77 1.82 1.90 1.84 1.69 1.61 1.71 1.44 1.03 0.95 1.04 1.10 1.15 1.17 1.07 0.96 0.91
1.59 1.62 1.70 1.82 1.89 1.86 1.79 1.80 1.74 1.67 1.67 1.68 1.78 1.86 1.92 1.99 2.04 2.08 2.08 2.06 2.08 2.06 1.99 1.93 1.81 1.82 1.87 1.83 1.86 1.89 1.80 1.70 1.67 1.63 1.35 1.15 1.15 1.15 1.26 1.31 1.31 1.25 1.12
1.55 1.66 1.65 1.70 1.74 1.78 1.80 1.77 1.82 1.86 1.91 1.95 1.94 1.95 2.00 2.10 2.23 2.33 2.39 2.36 2.28 2.22 2.19 2.14 2.06 1.99 2.01 2.00 2.00 1.92 1.86 1.88 1.82 1.80 1.63 1.42 1.34 1.27 1.38 1.50 1.58 1.51 1.37
1.45 1.58 1.63 1.64 1.76 1.86 1.91 1.94 1.90 1.99 2.04 2.00 2.02 2.05 2.00 2.17 2.50 2.66 2.54 2.38 2.24 2.14 2.07 2.05 2.10 2.23 2.27 2.31 2.36 2.20 2.07 2.15 2.11 2.06 1.87 1.63 1.46 1.45 1.54 1.56 1.73 1.68 1.61
1.35 1.44 1.51 1.63 1.75 1.92 1.99 2.07 2.07 2.07 2.11 2.09 2.04 2.04 2.00 2.08 2.56 2.74 2.32 1.97 1.91 1.95 1.93 1.81 1.81 2.04 2.12 2.23 2.37 2.36 2.36 2.44 2.46 2.36 2.16 1.88 1.52 1.41 1.55 1.80 1.97 2.11 2.05
1.21 1.31 1.39 1.55 1.64 1.75 1.82 1.87 1.93 1.89 1.88 1.93 1.97 1.89 1.83 1.95 2.37 2.47 2.15 1.66 1.54 1.61 1.65 1.63 1.60 1.65 1.89 1.82 2.00 2.11 2.16 2.32 2.48 2.54 2.51 2.07 1.76 1.61 1.87 2.11 2.13 2.26 2.11
1.08 1.19 1.22 1.37 1.52 1.57 1.63 1.67 1.70 1.66 1.69 1.80 1.78 1.66 1.57 1.66 2.06 2.19 1.98 1.55 1.47 1.50 1.52 1.53 1.52 1.53 1.70 1.94 2.00 1.91 1.79 1.87 2.11 2.28 2.45 2.27 2.06 2.01 2.28 2.58 2.66 2.72 2.47
0.99 1.06 1.08 1.16 1.35 1.39 1.48 1.57 1.55 1.58 1.60 1.61 1.59 1.51 1.42 1.48 1.83 2.09 1.93 1.46 1.51 1.51 1.49 1.54 1.52 1.47 1.84 2.09 2.00 1.91 1.78 1.72 1.86 2.17 2.38 2.44 2.49 2.55 2.70 3.05 3.29 3.41 3.16
0.91 0.99 1.00 1.03 1.15 1.18 1.24 1.33 1.37 1.40 1.47 1.52 1.52 1.46 1.39 1.36 1.64 2.03 2.03 1.54 1.54 1.50 1.48 1.54 1.72 1.67 1.87 1.96 1.83 1.90 1.95 1.71 1.55 1.66 1.80 1.89 1.94 2.06 2.42 2.65 3.02 3.39 3.29
0.84 0.88 0.93 0.98 1.06 1.08 1.11 1.17 1.25 1.32 1.39 1.45 1.48 1.43 1.34 1.35 1.47 1.80 2.17 1.84 1.64 1.54 1.50 1.52 1.57 1.79 1.81 1.86 1.84 1.80 1.99 1.82 1.58 1.63 1.66 1.64 1.69 1.83 2.02 2.26 2.66 3.08 3.33
0.82 0.88 0.92 0.96 0.99 1.01 1.06 1.14 1.16 1.27 1.41 1.42 1.39 1.40 1.37 1.34 1.40 1.59 1.92 2.05 1.91 1.65 1.54 1.38 1.41 1.66 1.71 1.81 1.77 1.84 1.94 1.85 1.70 1.74 1.73 1.69 1.69 1.78 1.91 2.05 2.30 2.59 2.79
0.80 0.85 0.92 0.98 0.99 1.04 1.07 1.14 1.19 1.29 1.43 1.43 1.36 1.33 1.34 1.30 1.38 1.62 1.64 1.72 1.86 1.71 1.63 1.67 1.58 1.61 1.60 1.56 1.65 1.77 1.74 1.64 1.71 1.75 1.67 1.62 1.62 1.71 1.76 1.87 2.00 2.22 2.43
0.80 0.81 0.86 0.97 1.04 1.05 1.08 1.14 1.17 1.24 1.40 1.47 1.43 1.38 1.30 1.26 1.36 1.59 1.55 1.50 1.64 1.71 1.75 1.76 1.71 1.66 1.61 1.55 1.57 1.55 1.49 1.56 1.68 1.66 1.56 1.47 1.47 1.59 1.73 1.85 1.99 2.10 2.34
0.80 0.80 0.83 0.93 1.01 1.04 1.09 1.14 1.20 1.20 1.42 1.60 1.51 1.49 1.48 1.48 1.54 1.79 1.77 1.68 1.70 1.74 1.80 1.82 1.73 1.66 1.65 1.55 1.46 1.41 1.46 1.55 1.61 1.54 1.51 1.51 1.51 1.56 1.65 1.74 1.97 2.09 2.24
0.86 0.85 0.87 0.94 0.97 1.00 1.04 1.12 1.23 1.24 1.32 1.33 1.38 1.46 1.43 1.55 1.63 1.61 1.66 1.71 1.74 1.81 1.86 1.83 1.62 1.49 1.48 1.44 1.42 1.40 1.37 1.40 1.41 1.46 1.52 1.53 1.58 1.62 1.60 1.61 1.83 2.05 2.13
0.92 0.93 0.95 0.96 0.96 1.00 0.97 1.02 1.14 1.17 1.19 1.20 1.24 1.31 1.43 1.54 1.48 1.46 1.53 1.57 1.59 1.60 1.59 1.49 1.39 1.37 1.35 1.33 1.34 1.35 1.38 1.32 1.32 1.41 1.46 1.47 1.51 1.57 1.60 1.60 1.66 1.83 1.95
0.96 1.01 1.04 1.01 0.99 1.00 0.97 0.96 1.01 1.13 1.25 1.29 1.31 1.35 1.42 1.50 1.49 1.48 1.55 1.61 1.60 1.48 1.32 1.29 1.29 1.28 1.28 1.30 1.34 1.34 1.34 1.33 1.35 1.38 1.41 1.43 1.48 1.57 1.60 1.57 1.59 1.71 1.80
1.04 1.05 1.07 1.07 1.05 1.02 1.00 1.01 1.02 1.06 1.16 1.29 1.38 1.47 1.53 1.54 1.53 1.51 1.45 1.38 1.35 1.31 1.26 1.23 1.19 1.19 1.23 1.28 1.32 1.31 1.32 1.33 1.31 1.33 1.35 1.37 1.40 1.50 1.52 1.42 1.44 1.57 1.72
1.13 1.21 1.20 1.15 1.12 1.09 1.07 1.08 1.10 1.13 1.17 1.22 1.33 1.43 1.56 1.60 1.54 1.49 1.34 1.25 1.28 1.28 1.25 1.25 1.19 1.16 1.23 1.29 1.33 1.34 1.34 1.30 1.28 1.29 1.26 1.24 1.28 1.35 1.39 1.33 1.36 1.46 1.52
1.17 1.21 1.24 1.19 1.16 1.16 1.17 1.18 1.19 1.22 1.25 1.24 1.26 1.36 1.64 1.65 1.45 1.27 1.23 1.22 1.25 1.29 1.29 1.27 1.25 1.25 1.26 1.30 1.31 1.30 1.31 1.26 1.24 1.27 1.25 1.21 1.20 1.24 1.23 1.26 1.27 1.32 1.38
1.14 1.17 1.14 1.15 1.18 1.23 1.27 1.26 1.26 1.27 1.25 1.27 1.29 1.34 1.43 1.36 1.28 1.23 1.20 1.20 1.20 1.24 1.28 1.34 1.30 1.23 1.25 1.31 1.35 1.33 1.28 1.20 1.13 1.16 1.18 1.15 1.14 1.14 1.15 1.17 1.17 1.22 1.30
1.13 1.16 1.14 1.15 1.18 1.27 1.26 1.20 1.22 1.24 1.28 1.29 1.28 1.30 1.29 1.29 1.26 1.23 1.23 1.22 1.19 1.16 1.16 1.24 1.27 1.17 1.11 1.14 1.20 1.28 1.31 1.21 1.10 1.12 1.21 1.18 1.11 1.07 1.09 1.11 1.08 1.14 1.20
1.11 1.12 1.13 1.17 1.20 1.21 1.21 1.22 1.21 1.22 1.28 1.35 1.33 1.31 1.30 1.29 1.25 1.18 1.14 1.15 1.13 1.09 1.08 1.14 1.16 1.11 1.04 1.06 1.08 1.09 1.10 1.13 1.17 1.18 1.18 1.19 1.12 1.05 1.07 1.10 1.06 1.05 1.10
1.07 1.10 1.13 1.20 1.24 1.24 1.25 1.24 1.23 1.23 1.28 1.34 1.34 1.32 1.28 1.24 1.19 1.14 1.08 1.07 1.07 1.06 1.03 1.04 1.09 1.08 1.01 0.97 0.99 1.02 1.13 1.22 1.30 1.40 1.49 1.48 1.30 1.14 1.12 1.13 1.07 1.02 1.04
1.02 1.06 1.13 1.21 1.27 1.27 1.28 1.28 1.24 1.24 1.31 1.31 1.29 1.29 1.27 1.24 1.18 1.15 1.12 1.09 1.10 1.08 1.03 0.99 0.99 1.03 1.02 0.97 0.97 1.04 1.15 1.21 1.34 1.56 1.78 1.81 1.52 1.22 1.11 1.12 1.03 1.00 1.03